Regional Weather Roundup
Issued by NWS Portland, ME

Home | Current Version | Previous Version | Text Only | Print | Product List | Glossary On
Versions: 1 2 3 4 5 6 7 8 9 10 11 12 13 14 15 16 17 18 19 20 21 22 23 24 25 26 27 28 29 30 31 32 33 34 35 36 37 38 39 40 41 42 43 44 45 46 47 48 49 50
000
ASUS41 KGYX 270810
RWRGYX
WEATHER ROUNDUP FOR MAINE AND NEW HAMPSHIRE
NATIONAL WEATHER SERVICE GRAY ME
400 AM EDT SUN MAY 27 2018

MEZ002-005-006-010-012-015-018-020-021-024-026-027-029-270900-
MAINE

CITY           SKY/WX    TMP DP  RH WIND       PRES   REMARKS
PORTLAND       CLOUDY    54  47  77 E17G28    30.16R
SANFORD        CLOUDY    53  50  89 E8G17     30.15R
BAR HARBOR     FAIR      48  40  73 NE3       30.21R
WISCASSET      MOCLDY    53  44  71 E7        30.19R
ROCKLAND       FAIR      50  41  71 E6        30.19R
FRYEBURG       CLOUDY    58  49  72 N5        30.17R
LEWISTONAUBURN CLOUDY    55  47  74 E7        30.18R
AUGUSTA        CLOUDY    53  44  71 E5        30.19R
WATERVILLE     FAIR      50  41  71 NE3       30.18R
BANGOR         FAIR      47  41  80 NE5       30.20R
GREENVILLE       N/A     45  38  76 SE7       30.18R
MILLINOCKET    FAIR      40  34  79 CALM      30.23R
HOULTON        FAIR      36  35  96 CALM      30.21R
PRESQUE ISLE   FAIR      32  31  96 CALM      30.23R
FRENCHVILLE    FAIR      43  27  53 SE3       30.21R
CARIBOU        FAIR      39  31  72 N5        30.21R
$$

NHZ002-005-008-009-011-012-014-270900-
NEW HAMPSHIRE

CITY           SKY/WX    TMP DP  RH WIND       PRES   REMARKS
PORTSMOUTH     LGT RAIN  55  54  96 NE12      30.09S
ROCHESTER      CLOUDY    56  54  93 E9        30.11S
NASHUA         CLOUDY    58  53  84 E9        30.10R
MANCHESTER     CLOUDY    59  53  80 CALM      30.09R
CONCORD        LGT RAIN  56  51  84 CALM      30.11R
LACONIA        LGT RAIN  57  51  80 NE12G17   30.12R
PLYMOUTH       CLOUDY    60  46  59 SE10G16   30.11S
BERLIN         NOT AVBL
WHITEFIELD     CLOUDY    57  47  69 N5        30.09R
JAFFREY        CLOUDY    55  53  93 MISG      30.10R
KEENE          LGT RAIN  60  55  83 E15G26    30.05R
LEBANON        CLOUDY    60  50  69 CALM      30.08R
MT WASHINGTON  FOG       34  34 100 SE16        N/A  VSB 1/8
$$

VTZ005-007-008-270900-
VERMONT

CITY           SKY/WX    TMP DP  RH WIND       PRES   REMARKS
ST JOHNSBURY     N/A     56  54  93 MISG      30.05R
MONTPELIER     CLOUDY    60  52  74 S8        30.09R
BURLINGTON     FAIR      64  58  80 SE7       29.98R
$$

MAZ007-012-024-CTZ003-RIZ002-NYZ038-NYZ072-270900-
SOUTHERN NEW ENGLAND AND NY

CITY           SKY/WX    TMP DP  RH WIND       PRES   REMARKS
BOSTON         CLOUDY    57  55  93 NE16      30.06R
WORCESTER      CLOUDY    59  59 100 NE15G23   30.04R FOG
NANTUCKET      CLOUDY    54  54 100 E16G28    29.97F
PROVIDENCE     FAIR      65  59  81 NE9       29.99S
HARTFORD       MOCLDY    68  60  75 N10       29.98R
ALBANY         CLOUDY    65  60  84 CALM      29.96R
NEW YORK CITY  CLOUDY    68  62  81 NE9       29.90R
$$

ANZ081-ANZ082-ANZ150-NHZ014-MEZ023>029-270900-
COASTAL MARINE OBSERVATIONS

STATION/POSITION TIME  TEMP    WIND        PRES    WAVE
                       AIR SEA DIR/SP/G            HT/PER
                 (UTC) (F)     (DEG/KT/KT) (MB)    (FT/S)
MOUNT DESERT ROC 0800   48      50/ 15/ 16 1022.1R
MATINICUS ROCK   0800   49     100/ 16/ 17 1021.1R
ISLE OF SHOALS   0800   54      50/ 22/ 24 1017.6F
JEFFREYS LEDGE   0736      55                N/A     3/ 5
$$

.............KEY..............
   WCI - WIND CHILL
   TC  - TEMPERATURE IN CELSIUS
   VSB - VISIBILITY IN MILES
   HX  - HEAT INDEX
   FAIR- INDICATES FEW OR NO CLOUDS BELOW 12,000 FT, WITH NO
         SIGNIFICANT WEATHER AND/OR OBSTRUCTIONS TO VISIBILITY.





USA.gov is the U.S. government's official web portal to all federal, state and local government web resources and services.